N5TM-4 Weather Reports


Display with metric or nautical units.
time (UTC)temp
F
wind
direction
speed
MPH
gust
MPH
rain 1hr
in
rain 24hr
in
rain mn
in
humidity
%
barometer
mb
20210920012050 84 163 5.0 11.0 0.00 0.00 0.00 78 1010.7
20210920011618 84 168 5.0 10.0 0.00 0.00 0.00 78 1010.6
20210920011101 84 169 4.0 10.0 0.00 0.00 0.00 78 1010.6
20210920010550 84 169 4.0 8.0 0.00 0.00 0.00 78 1010.5
20210920010211 84 170 3.0 8.0 0.00 0.00 0.00 77 1010.4
20210920005551 85 167 4.0 10.0 0.00 0.00 0.00 77 1010.4
20210920005048 85 168 4.0 10.0 0.00 0.00 0.00 76 1010.3
20210920004619 85 171 4.0 9.0 0.00 0.00 0.00 76 1010.3
20210920004048 85 168 3.0 9.0 0.00 0.00 0.00 76 1010.3
20210920003559 85 168 4.0 9.0 0.00 0.00 0.00 75 1010.2
20210920003114 86 167 4.0 9.0 0.00 0.00 0.00 75 1010.3
20210920002548 86 173 2.0 5.0 0.00 0.00 0.00 74 1010.2
20210920002054 86 173 2.0 5.0 0.00 0.00 0.00 73 1010.2
20210920001616 87 173 3.0 5.0 0.00 0.00 0.00 72 1010.2
20210920001056 87 173 2.0 5.0 0.00 0.00 0.00 71 1010.1
20210920000550 87 173 3.0 6.0 0.00 0.00 0.00 71 1010.1
20210920000054 87 173 3.0 6.0 0.00 0.00 0.00 71 1010.1
20210919235547 87 173 3.0 6.0 0.00 0.00 0.00 71 1010.0
20210919235049 88 175 1.0 6.0 0.00 0.00 0.00 70 1010.1
20210919234607 88 175 2.0 7.0 0.00 0.00 0.00 70 1010.0
20210919234046 88 175 3.0 7.0 0.00 0.00 0.00 69 1010.0
20210919233546 88 175 2.0 8.0 0.00 0.00 0.00 69 1010.0
20210919233140 88 179 2.0 7.0 0.00 0.00 0.00 68 1009.9
20210919232557 89 182 1.0 7.0 0.00 0.00 0.00 67 1009.9
20210919232045 89 182 3.0 7.0 0.00 0.00 0.00 67 1009.9
20210919231625 89 188 2.0 6.0 0.00 0.00 0.00 67 1009.9
20210919231045 89 191 3.0 6.0 0.00 0.00 0.00 67 1009.9
20210919230546 89 198 3.0 5.0 0.00 0.00 0.00 65 1009.9
20210919230049 90 202 2.0 4.0 0.00 0.00 0.00 61 1010.0
20210919225613 91 202 1.0 4.0 0.00 0.00 0.00 58 1009.9
20210919225045 91 202 1.0 4.0 0.00 0.00 0.00 58 1010.0
20210919224728 91 202 1.0 4.0 0.00 0.00 0.00 58 1010.0
20210919224043 91 202 1.0 4.0 0.00 0.00 0.00 58 1009.9
20210919223543 91 202 0.0 3.0 0.00 0.00 0.00 57 1010.0
20210919223129 91 202 1.0 4.0 0.00 0.00 0.00 57 1010.0
20210919222545 91 202 2.0 5.0 0.00 0.00 0.00 57 1009.9
20210919222043 91 202 2.0 7.0 0.00 0.00 0.00 56 1009.9
20210919221748 92 202 3.0 7.0 0.00 0.00 0.00 56 1010.0
20210919221043 92 209 3.0 7.0 0.00 0.00 0.00 57 1009.9
20210919220547 92 221 3.0 6.0 0.00 0.00 0.00 56 1009.9
20210919220257 92 237 2.0 5.0 0.00 0.00 0.00 56 1009.9
20210919215556 93 241 1.0 4.0 0.00 0.00 0.00 55 1009.9
20210919215046 93 241 0.0 3.0 0.00 0.00 0.00 54 1009.9
20210919214630 93 241 1.0 3.0 0.00 0.00 0.00 51 1010.0
20210919214040 93 241 1.0 3.0 0.00 0.00 0.00 53 1010.1
20210919213559 94 241 0.0 5.0 0.00 0.00 0.00 51 1010.1
20210919213103 95 241 1.0 5.0 0.00 0.00 0.00 50 1010.1
20210919212539 94 241 1.0 4.0 0.00 0.00 0.00 55 1010.1
20210919212039 93 241 0.0 3.0 0.00 0.00 0.00 53 1010.1
20210919211606 94 241 0.0 5.0 0.00 0.00 0.00 52 1010.2
20210919211101 94 241 2.0 5.0 0.00 0.00 0.00 53 1010.2
20210919210537 94 240 0.0 5.0 0.00 0.00 0.00 52 1010.3
20210919210054 94 240 3.0 5.0 0.00 0.00 0.00 51 1010.4
20210919205535 94 235 1.0 4.0 0.00 0.00 0.00 51 1010.5
20210919205045 95 235 1.0 4.0 0.00 0.00 0.00 52 1010.5
20210919204607 94 235 1.0 4.0 0.00 0.00 0.00 52 1010.6
20210919204034 95 235 0.0 4.0 0.00 0.00 0.00 50 1010.6
20210919203534 95 235 0.0 4.0 0.00 0.00 0.00 51 1010.7
20210919203039 95 235 0.0 4.0 0.00 0.00 0.00 50 1010.7
20210919202532 95 235 0.0 5.0 0.00 0.00 0.00 52 1010.8
20210919202033 95 235 2.0 5.0 0.00 0.00 0.00 51 1010.9
20210919201533 95 227 2.0 5.0 0.00 0.00 0.00 51 1010.9
20210919201031 95 219 1.0 4.0 0.00 0.00 0.00 50 1010.9
20210919200530 95 216 1.0 5.0 0.00 0.00 0.00 54 1011.0
20210919200048 94 206 2.0 6.0 0.00 0.00 0.00 53 1011.0
20210919195540 94 209 2.0 6.0 0.00 0.00 0.00 52 1011.2
20210919195027 95 308 0.0 4.0 0.00 0.00 0.00 53 1011.2
20210919194556 95 308 1.0 6.0 0.00 0.00 0.00 52 1011.4
20210919194025 95 308 2.0 6.0 0.00 0.00 0.00 52 1011.4
20210919193554 95 290 2.0 5.0 0.00 0.00 0.00 52 1011.6
20210919193024 94 294 2.0 5.0 0.00 0.00 0.00 54 1011.7
20210919192532 95 295 1.0 7.0 0.00 0.00 0.00 52 1011.9
20210919192021 95 295 3.0 7.0 0.00 0.00 0.00 54 1012.1
20210919191525 92 299 0.0 3.0 0.00 0.00 0.00 56 1012.0
20210919191056 92 299 0.0 4.0 0.00 0.00 0.00 55 1012.1
20210919190528 94 299 1.0 4.0 0.00 0.00 0.00 52 1012.2
20210919190020 94 299 1.0 4.0 0.00 0.00 0.00 55 1012.4
20210919185518 93 299 1.0 5.0 0.00 0.00 0.00 56 1012.4
20210919185017 94 299 2.0 5.0 0.00 0.00 0.00 54 1012.5
20210919184523 94 301 2.0 5.0 0.00 0.00 0.00 53 1012.4
20210919184017 94 300 1.0 6.0 0.00 0.00 0.00 52 1012.5
20210919183515 93 300 3.0 6.0 0.00 0.00 0.00 53 1012.7
20210919183048 95 290 3.0 7.0 0.00 0.00 0.00 55 1012.7
20210919182514 93 284 0.0 4.0 0.00 0.00 0.00 56 1012.8
20210919182013 93 284 1.0 5.0 0.00 0.00 0.00 58 1012.8
20210919181520 90 284 2.0 5.0 0.00 0.00 0.00 59 1012.8
20210919181012 91 284 2.0 5.0 0.00 0.00 0.00 59 1013.0
20210919180511 92 283 2.0 5.0 0.00 0.00 0.00 58 1013.1
20210919180022 93 278 0.0 4.0 0.00 0.00 0.00 58 1013.2
20210919175512 91 277 1.0 4.0 0.00 0.00 0.00 59 1013.3
20210919175009 89 277 1.0 4.0 0.00 0.00 0.00 63 1013.4
20210919174511 90 277 0.0 4.0 0.00 0.00 0.00 63 1013.5
20210919174012 90 277 1.0 6.0 0.00 0.00 0.00 63 1013.5
20210919173512 91 277 1.0 6.0 0.00 0.00 0.00 62 1013.6
20210919173012 92 277 2.0 4.0 0.00 0.00 0.00 59 1013.6
20210919172508 94 277 1.0 4.0 0.00 0.00 0.00 58 1013.7
20210919172007 94 277 2.0 6.0 0.00 0.00 0.00 58 1013.8
20210919171532 91 276 1.0 4.0 0.00 0.00 0.00 63 1013.9
20210919171004 90 277 1.0 8.0 0.00 0.00 0.00 65 1014.0
20210919170504 89 274 2.0 8.0 0.00 0.00 0.00 67 1014.0
20210919170027 89 149 1.0 3.0 0.00 0.00 0.00 66 1014.0
20210919165508 89 149 1.0 6.0 0.00 0.00 0.00 65 1014.1
20210919165003 89 149 0.0 6.0 0.00 0.00 0.00 68 1014.2
20210919164503 90 144 2.0 6.0 0.00 0.00 0.00 67 1014.2
20210919164003 89 154 1.0 5.0 0.00 0.00 0.00 66 1014.3
20210919163502 90 154 0.0 3.0 0.00 0.00 0.00 68 1014.4
20210919163000 88 154 0.0 5.0 0.00 0.00 0.00 70 1014.5
20210919162109 87 150 0.0 3.0 0.00 0.00 0.00 69 1014.7
20210919161717 87 150 1.0 3.0 0.00 0.00 0.00 71 1014.7
20210919161106 87 150 1.0 3.0 0.00 0.00 0.00 73 1014.8
20210919160604 87 150 0.0 3.0 0.00 0.00 0.00 72 1014.8
20210919160406 88 150 0.0 5.0 0.00 0.00 0.00 71 1014.8
20210919155558 86 150 0.0 5.0 0.00 0.00 0.00 73 1014.8
20210919155057 86 150 0.0 6.0 0.00 0.00 0.00 73 1014.8
20210919154650 86 150 3.0 6.0 0.00 0.00 0.00 74 1014.8
20210919154055 86 147 1.0 5.0 0.00 0.00 0.00 76 1014.9
20210919153628 85 150 1.0 3.0 0.00 0.00 0.00 78 1014.9
20210919153114 84 150 0.0 3.0 0.00 0.00 0.00 79 1014.9
20210919152608 83 150 0.0 3.0 0.00 0.00 0.00 81 1014.9
20210919152051 82 150 0.0 3.0 0.00 0.00 0.00 82 1014.9
20210919151706 82 150 2.0 3.0 0.00 0.00 0.00 82 1015.0
20210919151053 81 150 0.0 1.0 0.00 0.00 0.00 85 1015.0
20210919150612 80 150 0.0 0.0 0.00 0.00 0.00 86 1015.1
20210919150107 79 150 0.0 1.0 0.00 0.00 0.00 87 1015.0
20210919145545 79 150 0.0 2.0 0.00 0.00 0.00 87 1014.9
20210919145055 79 150 0.0 2.0 0.00 0.00 0.00 87 1014.9
20210919144556 79 150 1.0 2.0 0.00 0.00 0.00 87 1014.9
20210919144058 79 150 0.0 2.0 0.00 0.00 0.00 87 1014.8
20210919143553 79 150 0.0 2.0 0.00 0.00 0.00 87 1014.9
20210919143055 79 150 0.0 2.0 0.00 0.00 0.00 87 1014.9
20210919142542 79 150 0.0 3.0 0.00 0.00 0.00 87 1014.8
20210919142044 79 150 0.0 3.0 0.00 0.00 0.00 87 1014.7
20210919141805 79 150 0.0 3.0 0.00 0.00 0.00 88 1014.7
20210919141048 79 150 1.0 3.0 0.00 0.00 0.00 88 1014.7
20210919140540 78 150 0.0 2.0 0.00 0.00 0.00 88 1014.6
20210919140039 78 150 0.0 3.0 0.00 0.00 0.00 88 1014.6
20210919135541 78 150 1.0 3.0 0.00 0.00 0.00 88 1014.5
20210919135037 78 150 0.0 2.0 0.00 0.00 0.00 88 1014.5
20210919134541 78 150 0.0 4.0 0.00 0.00 0.00 88 1014.4
20210919134036 78 150 1.0 4.0 0.00 0.00 0.00 89 1014.3
20210919133536 78 123 1.0 3.0 0.00 0.00 0.00 90 1014.3
20210919133139 77 123 1.0 3.0 0.00 0.00 0.00 90 1014.3
20210919132539 77 123 0.0 1.0 0.00 0.00 0.00 91 1014.3
20210919132055 76 123 0.0 0.0 0.00 0.00 0.00 91 1014.4
20210919131540 76 123 0.0 0.0 0.00 0.00 0.00 92 1014.4
20210919131050 76 123 0.0 0.0 0.00 0.00 0.00 92 1014.3
20210919130533 0 123 0.0 0.0 0.00 0.00 0.00 92 1014.2
20210919130044 75 123 0.0 0.0 0.00 0.00 0.00 93 1014.2
20210919125532 74 123 0.0 0.0 0.00 0.00 0.00 93 1014.2
20210919125042 74 123 0.0 0.0 0.00 0.00 0.00 93 1014.0
20210919124600 74 123 0.0 0.0 0.00 0.00 0.00 92 1014.0
20210919124037 0 123 0.0 0.0 0.00 0.00 0.00 91 1014.1
20210919123530 75 123 0.0 1.0 0.00 0.00 0.00 89 1014.0
20210919123037 0 123 0.0 1.0 0.00 0.00 0.00 1014.0
20210919122528 74 123 0.0 1.0 0.00 0.00 0.00 93 1014.0
20210919122027 74 123 0.0 1.0 0.00 0.00 0.00 93 1014.0
20210919121603 74 123 0.0 1.0 0.00 0.00 0.00 93 1014.0
20210919121036 74 123 0.0 1.0 0.00 0.00 0.00 93 1014.0
20210919120551 74 123 0.0 0.0 0.00 0.00 0.00 93 1013.8
20210919120103 74 123 0.0 0.0 0.00 0.00 0.00 93 1013.8
20210919115527 74 123 0.0 0.0 0.00 0.00 0.00 93 1013.7
20210919115039 74 123 0.0 0.0 0.00 0.00 0.00 92 1013.6
20210919114555 74 123 0.0 0.0 0.00 0.00 0.00 92 1013.7
20210919114027 74 123 0.0 0.0 0.00 0.00 0.00 93 1013.6
20210919113525 74 123 0.0 0.0 0.00 0.00 0.00 93 1013.6
20210919113029 74 123 0.0 0.0 0.00 0.00 0.00 93 1013.6
20210919112536 74 123 0.0 0.0 0.00 0.00 0.00 93 1013.6
20210919112048 74 123 0.0 0.0 0.00 0.00 0.00 92 1013.6
20210919111540 74 123 0.0 0.0 0.00 0.00 0.00 92 1013.5
20210919111025 74 123 0.0 0.0 0.00 0.00 0.00 92 1013.5
20210919110527 74 123 0.0 0.0 0.00 0.00 0.00 92 1013.4
20210919110038 74 123 0.0 0.0 0.00 0.00 0.00 92 1013.4
20210919105525 74 115 0.0 0.0 0.00 0.00 0.00 92 1013.4
20210919105024 74 115 0.0 1.0 0.00 0.00 0.00 92 1013.5
20210919104541 75 115 0.0 1.0 0.00 0.00 0.00 92 1013.4
20210919104024 75 115 0.0 0.0 0.00 0.00 0.00 92 1013.5
20210919103606 75 115 0.0 0.0 0.00 0.00 0.00 92 1013.4
20210919103044 75 115 0.0 0.0 0.00 0.00 0.00 92 1013.4
20210919102528 74 115 0.0 0.0 0.00 0.00 0.00 92 1013.3
20210919102028 74 115 0.0 2.0 0.00 0.00 0.00 92 1013.3
20210919101615 74 115 0.0 2.0 0.00 0.00 0.00 92 1013.3
20210919101029 74 115 0.0 2.0 0.00 0.00 0.00 92 1013.4
20210919100523 74 115 0.0 0.0 0.00 0.00 0.00 92 1013.4
20210919100029 74 115 0.0 0.0 0.00 0.00 0.00 92 1013.4
20210919095521 74 115 0.0 0.0 0.00 0.00 0.00 92 1013.4
20210919095021 74 115 0.0 0.0 0.00 0.00 0.00 92 1013.4
20210919094549 74 115 0.0 0.0 0.00 0.00 0.00 92 1013.4
20210919094032 74 115 0.0 0.0 0.00 0.00 0.00 91 1013.4
20210919093525 74 115 0.0 0.0 0.00 0.00 0.00 91 1013.4
20210919093034 74 115 0.0 0.0 0.00 0.00 0.00 92 1013.4
20210919092538 74 115 0.0 0.0 0.00 0.00 0.00 91 1013.4
20210919092020 74 115 0.0 0.0 0.00 0.00 0.00 91 1013.4
20210919091535 74 115 0.0 1.0 0.00 0.00 0.00 91 1013.4
20210919091020 74 115 0.0 2.0 0.00 0.00 0.00 91 1013.4
20210919090520 74 115 1.0 2.0 0.00 0.00 0.00 91 1013.4
20210919090022 74 115 0.0 0.0 0.00 0.00 0.00 91 1013.5
20210919085523 74 115 0.0 0.0 0.00 0.00 0.00 91 1013.4
20210919085024 74 115 0.0 0.0 0.00 0.00 0.00 91 1013.4
20210919084523 74 115 0.0 0.0 0.00 0.00 0.00 91 1013.4
20210919084027 74 115 0.0 0.0 0.00 0.00 0.00 91 1013.4
20210919083517 74 115 0.0 0.0 0.00 0.00 0.00 91 1013.5
20210919083021 75 115 0.0 0.0 0.00 0.00 0.00 91 1013.5
20210919082542 74 115 0.0 0.0 0.00 0.00 0.00 91 1013.5
20210919082015 75 115 0.0 0.0 0.00 0.00 0.00 91 1013.6
20210919081532 75 115 0.0 0.0 0.00 0.00 0.00 91 1013.7
20210919081015 75 115 0.0 0.0 0.00 0.00 0.00 91 1013.6
20210919080515 75 115 0.0 0.0 0.00 0.00 0.00 90 1013.7
20210919080017 75 115 0.0 0.0 0.00 0.00 0.00 90 1013.7
20210919075521 75 115 0.0 1.0 0.00 0.00 0.00 90 1013.7
20210919075013 75 115 0.0 2.0 0.00 0.00 0.00 90 1013.7
20210919074546 75 115 1.0 2.0 0.00 0.00 0.00 90 1013.7
20210919074012 75 115 0.0 2.0 0.00 0.00 0.00 90 1013.9
20210919073512 75 115 0.0 2.0 0.00 0.00 0.00 90 1013.8
20210919073021 75 115 0.0 2.0 0.00 0.00 0.00 90 1014.0
20210919072528 75 115 0.0 1.0 0.00 0.00 0.00 90 1014.0
20210919072017 75 115 0.0 1.0 0.00 0.00 0.00 90 1014.1
20210919071530 75 115 0.0 0.0 0.00 0.00 0.00 90 1014.0
20210919071014 75 115 0.0 0.0 0.00 0.00 0.00 90 1014.1
20210919070515 75 115 0.0 1.0 0.00 0.00 0.00 90 1014.0
20210919070010 75 115 0.0 1.0 0.00 0.00 0.00 90 1014.1
20210919065511 75 115 0.0 1.0 0.00 0.00 0.00 90 1014.1
20210919065008 75 115 0.0 1.0 0.00 0.00 0.00 90 1014.1
20210919064517 75 115 0.0 1.0 0.00 0.00 0.00 90 1014.1
20210919064007 75 115 0.0 1.0 0.00 0.00 0.00 90 1014.1
20210919063507 75 115 0.0 0.0 0.00 0.00 0.00 90 1014.1
20210919063013 76 115 0.0 0.0 0.00 0.00 0.00 90 1014.1
20210919062509 76 115 0.0 0.0 0.00 0.00 0.00 89 1014.1
20210919062006 76 115 0.0 0.0 0.00 0.00 0.00 90 1014.2
20210919061506 76 115 0.0 0.0 0.00 0.00 0.00 89 1014.1
20210919061005 76 115 0.0 0.0 0.00 0.00 0.00 89 1014.1
20210919060506 76 115 0.0 1.0 0.00 0.00 0.00 89 1014.3
20210919060005 76 115 0.0 1.0 0.00 0.00 0.00 89 1014.3
20210919055504 76 115 0.0 0.0 0.00 0.00 0.00 89 1014.3
20210919055003 76 115 0.0 0.0 0.00 0.00 0.00 88 1014.3
20210919054501 76 115 0.0 1.0 0.00 0.00 0.00 88 1014.3
20210919053603 76 115 0.0 1.0 0.00 0.00 0.00 88 1014.4
20210919053133 77 115 0.0 1.0 0.00 0.00 0.00 87 1014.4
20210919052614 77 115 0.0 1.0 0.00 0.00 0.00 87 1014.4
20210919052058 77 115 0.0 0.0 0.00 0.00 0.00 87 1014.4
20210919051710 77 115 0.0 1.0 0.00 0.00 0.00 87 1014.5
20210919051056 77 115 0.0 2.0 0.00 0.00 0.00 86 1014.5
20210919050607 77 115 0.0 2.0 0.00 0.00 0.00 86 1014.5
20210919050130 77 115 0.0 2.0 0.00 0.00 0.00 86 1014.5
20210919045600 77 115 0.0 1.0 0.00 0.00 0.00 86 1014.4
20210919045055 77 115 0.0 0.0 0.00 0.00 0.00 87 1014.3
20210919044749 77 115 0.0 1.0 0.00 0.00 0.00 86 1014.3
20210919044053 77 115 0.0 1.0 0.00 0.00 0.00 86 1014.4
20210919043553 78 115 0.0 1.0 0.00 0.00 0.00 86 1014.4
20210919043141 78 115 0.0 1.0 0.00 0.00 0.00 86 1014.5
20210919042556 77 115 0.0 1.0 0.00 0.00 0.00 86 1014.5
20210919042052 77 115 0.0 0.0 0.00 0.00 0.00 86 1014.4
20210919041701 77 115 0.0 0.0 0.00 0.00 0.00 85 1014.5
20210919041052 78 115 0.0 1.0 0.00 0.00 0.00 86 1014.4
20210919040552 78 115 0.0 1.0 0.00 0.00 0.00 85 1014.4
20210919040114 78 115 0.0 3.0 0.00 0.00 0.00 85 1014.4
20210919035114 78 115 0.0 1.0 0.00 0.00 0.00 84 1014.3
20210919034701 78 115 0.0 1.0 0.00 0.00 0.00 84 1014.3
20210919034056 78 115 0.0 1.0 0.00 0.00 0.00 83 1014.3
20210919033604 79 115 0.0 1.0 0.00 0.00 0.00 83 1014.3
20210919033203 79 115 0.0 2.0 0.00 0.00 0.00 83 1014.3
20210919032555 79 115 0.0 2.0 0.00 0.00 0.00 83 1014.3
20210919032050 79 115 0.0 2.0 0.00 0.00 0.00 83 1014.2
20210919031105 79 115 0.0 2.0 0.00 0.00 0.00 82 1014.3
20210919030550 79 115 0.0 2.0 0.00 0.00 0.00 82 1014.3
20210919030135 79 115 1.0 3.0 0.00 0.00 0.00 81 1014.4
20210919025554 79 115 0.0 3.0 0.00 0.00 0.00 81 1014.3
20210919025112 80 115 0.0 3.0 0.00 0.00 0.00 81 1014.4
20210919024618 80 115 0.0 3.0 0.00 0.00 0.00 80 1014.3
20210919024048 80 115 0.0 1.0 0.00 0.00 0.00 80 1014.2
20210919023548 80 115 0.0 2.0 0.00 0.00 0.00 79 1014.2
20210919023243 80 115 0.0 2.0 0.00 0.00 0.00 79 1014.2
20210919022552 80 115 0.0 1.0 0.00 0.00 0.00 78 1014.1
20210919022054 81 115 0.0 2.0 0.00 0.00 0.00 78 1014.1
20210919021645 81 115 0.0 2.0 0.00 0.00 0.00 77 1014.0
20210919021049 81 115 0.0 2.0 0.00 0.00 0.00 77 1014.0
20210919020556 81 115 0.0 2.0 0.00 0.00 0.00 77 1013.9
20210919020109 81 115 0.0 2.0 0.00 0.00 0.00 77 1013.9
20210919015551 81 115 0.0 2.0 0.00 0.00 0.00 77 1013.8
20210919015047 81 115 0.0 3.0 0.00 0.00 0.00 76 1013.8
20210919014732 81 115 0.0 3.0 0.00 0.00 0.00 76 1013.6
20210919014047 81 115 0.0 2.0 0.00 0.00 0.00 77 1013.5
20210919013551 81 115 0.0 1.0 0.00 0.00 0.00 77 1013.5
20210919013210 82 115 0.0 2.0 0.00 0.00 0.00 76 1013.4
20210919012606 82 115 0.0 2.0 0.00 0.00 0.00 75 1013.4